period_start,C,m1,H,J0,J1,J2,J3,J4,J5,JA,JB,JC,JD,JJ,JK,JN,#
2013-12-14 00:00:20,0.02,1.14,0.00,26.84,27.84,30.90,5.82,32.42,1021.05,2041.03,3081.95,3005.02,3240.99,349.14,320.55,12.21,0000 0000 0000 0000 000000
2013-12-14 00:01:20,0.02,1.14,0.00,26.83,27.84,30.93,5.88,32.29,1021.04,2041.02,3081.91,3005.00,3240.91,350.90,321.74,12.22,0000 0000 0000 0000 000000
2013-12-14 00:02:20,0.02,1.14,0.00,26.82,27.84,30.92,6.02,32.38,1021.02,2041.03,3081.62,3005.00,3240.61,349.83,321.31,12.23,0000 0000 0000 0000 000000
2013-12-14 00:03:20,0.08,1.14,0.00,26.83,27.84,30.85,5.94,32.25,1021.04,2041.02,3081.24,3004.99,3240.28,350.41,321.60,12.23,0000 0000 0000 0000 000000
2013-12-14 00:04:21,0.11,1.14,0.00,26.83,27.84,30.85,5.88,32.46,1021.03,2041.01,3081.09,3004.67,3240.10,349.33,320.82,12.24,0000 0000 0000 0000 000000
2013-12-14 00:05:21,0.11,1.14,0.00,26.79,27.84,30.83,5.91,31.79,1021.01,2041.01,3081.03,3004.30,3240.04,350.63,321.84,12.24,0000 0000 0000 0000 000000
2013-12-14 00:06:21,0.10,1.14,0.00,26.81,27.84,30.86,5.92,31.96,1021.00,2041.00,3080.95,3004.13,3240.01,350.11,321.34,12.25,0000 0000 0000 0000 000000
2013-12-14 00:07:22,0.05,1.14,0.00,26.80,27.84,30.87,5.97,32.25,1020.92,2041.02,3080.81,3004.05,3239.95,349.73,320.96,12.25,0000 0000 0000 0000 000000
2013-12-14 00:08:22,0.07,1.14,0.00,26.82,27.84,30.89,6.00,32.58,1020.89,2041.01,3080.40,3004.01,3239.57,349.72,321.06,12.26,0000 0000 0000 0000 000000
2013-12-14 00:09:22,0.10,1.14,0.00,26.82,27.84,30.92,5.85,32.67,1020.71,2041.03,3080.18,3004.00,3239.23,349.21,320.41,12.27,0000 0000 0000 0000 000000
2013-12-14 00:10:23,0.09,1.14,0.00,26.78,27.84,30.93,5.93,32.88,1020.64,2041.03,3080.07,3003.96,3239.08,351.07,322.13,12.27,0000 0000 0000 0000 000000
2013-12-14 00:11:23,0.04,1.14,0.00,26.80,27.84,30.91,5.95,32.63,1020.64,2041.03,3080.02,3003.80,3239.03,349.53,320.70,12.28,0000 0000 0000 0000 000000
2013-12-14 00:12:23,0.06,1.14,0.00,26.80,27.84,30.92,5.88,32.46,1020.56,2041.03,3079.93,3003.48,3239.00,349.99,321.09,12.28,0000 0000 0000 0000 000000
2013-12-14 00:13:24,0.10,1.14,0.00,26.78,27.84,30.93,5.96,32.71,1020.55,2041.02,3079.71,3003.20,3238.96,349.82,320.95,12.29,0000 0000 0000 0000 000000
2013-12-14 00:14:24,0.10,1.14,0.00,26.81,27.84,30.95,6.00,32.67,1020.53,2041.03,3079.39,3003.07,3238.86,350.02,321.36,12.30,0000 0000 0000 0000 000000
2013-12-14 00:15:24,0.10,1.14,0.00,26.79,27.84,30.96,5.86,32.83,1020.52,2041.06,3079.15,3003.02,3238.45,349.64,320.90,12.30,0000 0000 0000 0000 000000
2013-12-14 00:16:24,0.10,1.14,0.00,26.80,27.84,30.94,6.14,33.38,1020.52,2041.05,3079.05,3003.00,3238.17,350.79,321.60,12.31,0000 0000 0000 0000 000000
2013-12-14 00:17:25,0.04,1.14,0.00,26.80,27.84,30.97,5.96,32.58,1020.52,2041.04,3078.99,3002.95,3238.06,350.19,321.07,12.31,0000 0000 0000 0000 000000
2013-12-14 00:18:25,0.02,1.14,0.00,26.79,27.84,30.95,5.92,32.92,1020.52,2041.01,3078.97,3002.83,3238.01,350.32,321.39,12.32,0000 0000 0000 0000 000000
2013-12-14 00:19:25,0.02,1.14,0.00,26.77,27.84,30.98,5.78,32.29,1020.52,2041.01,3078.68,3002.51,3237.96,349.81,320.96,12.33,0000 0000 0000 0000 000000
2013-12-14 00:20:26,0.15,1.15,0.00,26.78,27.84,30.98,6.01,32.71,1020.52,2041.02,3078.28,3002.19,3237.68,350.59,321.74,12.33,0000 0000 0000 0000 000000
2013-12-14 00:21:26,0.19,1.15,0.00,26.79,27.84,30.96,5.92,32.79,1020.52,2041.05,3078.10,3002.07,3237.28,349.52,320.68,12.34,0000 0000 0000 0000 000000
2013-12-14 00:22:26,0.13,1.15,0.00,26.80,27.84,30.96,5.67,32.46,1020.52,2041.08,3078.04,3002.02,3237.10,349.28,320.43,12.34,0000 0000 0000 0000 000000
2013-12-14 00:23:27,0.04,1.15,0.00,26.79,27.84,30.93,6.03,32.71,1020.52,2041.06,3078.00,3002.00,3237.04,350.65,321.90,12.35,0000 0000 0000 0000 000000
2013-12-14 00:24:27,0.00,1.15,0.00,26.79,27.84,30.91,5.87,32.79,1020.52,2041.05,3077.98,3002.00,3237.01,349.70,320.69,12.35,0000 0000 0000 0000 000000
2013-12-14 00:25:27,0.00,1.15,0.00,26.79,27.84,30.91,6.18,32.75,1020.52,2041.03,3077.81,3001.90,3236.92,349.94,321.04,12.36,0000 0000 0000 0000 000000
2013-12-14 00:26:27,0.05,1.15,0.00,26.77,27.85,30.92,5.81,32.17,1020.54,2041.03,3077.53,3001.70,3236.69,350.27,321.37,12.37,0000 0000 0000 0000 000000
2013-12-14 00:27:28,0.14,1.15,0.00,26.80,27.85,30.94,5.83,32.63,1020.54,2041.06,3077.25,3001.36,3236.31,349.62,320.75,12.37,0000 0000 0000 0000 000000
2013-12-14 00:28:28,0.18,1.15,0.00,26.81,27.85,30.96,5.91,32.42,1020.52,2041.04,3077.11,3001.14,3236.13,349.97,320.74,12.38,0000 0000 0000 0000 000000
2013-12-14 00:29:28,0.08,1.15,0.00,26.80,27.85,30.94,5.90,32.04,1020.55,2041.01,3077.04,3001.05,3236.05,350.34,321.42,12.38,0000 0000 0000 0000 000000
2013-12-14 00:30:28,0.02,1.15,0.00,26.78,27.85,30.95,5.89,32.50,1020.53,2041.03,3077.01,3001.01,3236.01,349.31,320.48,12.39,0000 0000 0000 0000 000000
2013-12-14 00:31:29,0.04,1.15,0.00,26.80,27.85,30.98,5.78,32.67,1020.53,2041.05,3076.94,3001.00,3235.95,349.32,320.48,12.40,0000 0000 0000 0000 000000
2013-12-14 00:32:29,0.02,1.15,0.00,26.78,27.85,31.01,5.98,33.00,1020.54,2041.01,3076.84,3000.95,3235.72,350.50,321.45,12.40,0000 0000 0000 0000 000000
2013-12-14 00:33:29,0.05,1.15,0.00,26.76,27.85,31.00,5.98,32.71,1020.54,2041.01,3076.43,3000.58,3235.30,350.06,321.10,12.41,0000 0000 0000 0000 000000
2013-12-14 00:34:29,0.20,1.15,0.00,26.81,27.85,30.99,5.84,33.08,1020.55,2041.01,3076.14,3000.18,3235.02,349.96,320.69,12.41,0000 0000 0000 0000 000000
2013-12-14 00:35:29,0.21,1.15,0.00,26.80,27.85,30.98,6.01,33.33,1020.64,2041.02,3075.88,2999.58,3234.45,350.05,321.17,12.42,0000 0000 0000 0000 000000
2013-12-14 00:36:30,0.24,1.16,0.00,26.78,27.85,30.98,6.07,33.17,1020.75,2041.03,3075.47,2999.21,3234.12,350.75,321.87,12.42,0000 0000 0000 0000 000000
2013-12-14 00:37:30,0.19,1.16,0.00,26.78,27.85,31.00,5.82,33.50,1020.90,2041.02,3075.21,2999.07,3233.92,349.15,320.45,12.43,0000 0000 0000 0000 000000
2013-12-14 00:38:30,0.11,1.16,0.00,26.77,27.85,30.98,5.99,33.00,1021.00,2041.05,3075.11,2999.03,3233.65,350.20,321.46,12.44,0000 0000 0000 0000 000000
2013-12-14 00:39:31,0.06,1.16,0.00,26.75,27.85,30.98,5.83,33.29,1021.01,2041.03,3075.05,2999.00,3233.28,349.60,320.68,12.44,0000 0000 0000 0000 000000
2013-12-14 00:40:31,0.05,1.16,0.00,26.76,27.85,30.96,6.01,33.33,1021.00,2041.05,3075.02,2998.93,3233.10,350.60,321.76,12.45,0000 0000 0000 0000 000000
2013-12-14 00:41:31,0.05,1.16,0.00,26.73,27.85,30.98,6.00,32.92,1021.02,2041.04,3075.00,2998.86,3233.04,349.14,320.53,12.45,0000 0000 0000 0000 000000
2013-12-14 00:42:31,0.04,1.16,0.00,26.73,27.85,30.98,5.86,32.79,1021.02,2041.05,3074.99,2998.57,3233.01,350.02,320.99,12.46,0000 0000 0000 0000 000000
2013-12-14 00:43:31,0.06,1.16,0.00,26.78,27.85,31.01,5.94,33.21,1021.03,2041.05,3074.97,2998.39,3233.00,349.01,320.08,12.47,0000 0000 0000 0000 000000
2013-12-14 00:44:32,0.05,1.16,0.00,26.76,27.85,31.02,5.89,33.63,1021.02,2041.06,3074.92,2998.21,3233.00,349.70,321.01,12.47,0000 0000 0000 0000 000000
2013-12-14 00:45:32,0.04,1.16,0.00,26.76,27.85,31.09,5.88,33.33,1021.07,2041.03,3074.74,2998.09,3232.94,349.74,321.20,12.48,0000 0000 0000 0000 000000
2013-12-14 00:46:32,0.05,1.16,0.00,26.75,27.85,31.04,5.92,33.08,1021.04,2041.02,3074.49,2998.03,3232.72,350.10,321.67,12.48,0000 0000 0000 0000 000000
2013-12-14 00:47:32,0.07,1.16,0.00,26.72,27.85,31.01,5.88,32.75,1021.03,2041.01,3074.26,2998.01,3232.42,351.06,322.31,12.49,0000 0000 0000 0000 000000
2013-12-14 00:48:33,0.06,1.16,0.00,26.73,27.85,31.03,5.95,33.17,1021.03,2041.00,3074.15,2998.00,3232.21,350.04,321.36,12.50,0000 0000 0000 0000 000000
2013-12-14 00:49:33,0.04,1.16,0.00,26.70,27.85,31.05,5.97,33.00,1021.04,2041.02,3074.07,2997.99,3232.10,350.19,321.49,12.50,0000 0000 0000 0000 000000
2013-12-14 00:50:33,0.05,1.16,0.00,26.75,27.85,31.01,5.95,32.33,1021.13,2041.03,3074.02,2997.97,3232.05,349.49,320.86,12.51,0000 0000 0000 0000 000000
2013-12-14 00:51:33,0.01,1.16,0.00,26.78,27.85,31.04,5.98,32.33,1021.15,2041.02,3073.99,2997.79,3232.01,349.83,321.16,12.51,0000 0000 0000 0000 000000
2013-12-14 00:52:34,0.05,1.16,0.00,26.78,27.86,31.01,6.03,31.92,1021.11,2041.04,3073.88,2997.49,3231.98,350.48,321.88,12.52,0000 0000 0000 0000 000000
2013-12-14 00:53:34,0.13,1.16,0.00,26.79,27.86,31.04,5.90,32.21,1021.02,2041.03,3073.71,2997.24,3231.93,349.57,320.95,12.52,0000 0000 0000 0000 000000
2013-12-14 00:54:34,0.08,1.16,0.00,26.82,27.87,31.04,5.93,32.00,1021.02,2041.04,3073.36,2997.11,3231.72,349.64,320.26,12.53,0000 0000 0000 0000 000000
2013-12-14 00:55:34,0.09,1.16,0.00,26.80,27.87,31.01,5.78,32.50,1021.01,2041.03,3073.15,2997.05,3231.42,349.70,320.93,12.54,0000 0000 0000 0000 000000
2013-12-14 00:56:34,0.10,1.16,0.00,26.81,27.87,31.04,5.89,32.38,1021.00,2041.06,3073.05,2997.01,3231.17,350.11,321.33,12.54,0000 0000 0000 0000 000000
2013-12-14 00:57:35,0.07,1.16,0.00,26.81,27.87,31.05,5.94,32.33,1020.99,2041.06,3073.01,2997.00,3231.07,350.10,321.26,12.55,0000 0000 0000 0000 000000
2013-12-14 00:58:35,0.02,1.16,0.00,26.80,27.87,31.05,5.96,32.17,1021.00,2041.08,3073.00,2996.99,3231.02,349.59,320.57,12.55,0000 0000 0000 0000 000000
2013-12-14 00:59:35,0.02,1.16,0.00,26.77,27.87,31.04,5.81,31.88,1020.98,2041.06,3072.98,2996.97,3231.00,349.50,320.95,12.56,0000 0000 0000 0000 000000
2013-12-14 01:00:36,0.00,1.16,0.00,26.74,27.87,31.06,5.93,32.00,1020.99,2041.04,3072.93,2996.97,3231.00,350.54,321.80,12.57,0000 0000 0000 0000 000000
2013-12-14 01:01:36,-0.01,1.16,0.00,26.76,27.87,31.04,5.88,32.33,1020.95,2041.04,3072.87,2996.94,3231.00,349.53,320.48,12.57,0000 0000 0000 0000 000000
2013-12-14 01:02:36,0.02,1.16,0.00,26.79,27.87,31.05,5.73,32.13,1020.95,2041.02,3072.71,2996.80,3230.96,349.50,320.78,12.58,0000 0000 0000 0000 000000
2013-12-14 01:03:36,0.07,1.17,0.00,26.78,27.87,31.05,6.14,32.50,1020.92,2041.04,3072.47,2996.64,3230.77,350.74,321.59,12.58,0000 0000 0000 0000 000000
2013-12-14 01:04:36,0.12,1.17,0.00,26.80,27.87,31.05,5.81,31.75,1020.98,2041.03,3072.23,2996.45,3230.40,350.19,321.57,12.59,0000 0000 0000 0000 000000
2013-12-14 01:05:37,0.11,1.17,0.00,26.79,27.87,31.04,5.74,32.17,1021.01,2041.01,3072.11,2996.26,3230.18,349.09,321.22,12.59,0000 0000 0000 0000 000000
2013-12-14 01:06:37,0.08,1.17,0.00,26.79,27.87,31.06,5.91,32.33,1020.97,2041.00,3072.04,2996.09,3230.07,348.90,320.82,12.60,0000 0000 0000 0000 000000
2013-12-14 01:07:37,0.05,1.17,0.00,26.80,27.88,31.09,5.89,32.21,1020.93,2041.00,3072.00,2996.03,3230.03,349.87,321.10,12.61,0000 0000 0000 0000 000000
2013-12-14 01:08:37,0.02,1.17,0.00,26.81,27.88,31.06,5.87,32.25,1020.89,2041.03,3071.96,2996.01,3230.00,350.31,321.48,12.61,0000 0000 0000 0000 000000
2013-12-14 01:09:38,0.03,1.17,0.00,26.79,27.88,31.07,5.68,32.04,1020.91,2041.03,3071.82,2996.00,3229.96,348.39,319.74,12.62,0000 0000 0000 0000 000000
2013-12-14 01:10:38,0.05,1.17,0.00,26.79,27.89,31.08,5.98,32.58,1020.95,2041.04,3071.63,2996.00,3229.86,350.10,321.33,12.62,0000 0000 0000 0000 000000
2013-12-14 01:11:38,0.03,1.17,0.00,26.79,27.89,31.09,5.77,32.08,1020.94,2041.04,3071.35,2995.98,3229.54,348.77,320.10,12.63,0000 0000 0000 0000 000000
2013-12-14 01:12:39,0.10,1.17,0.00,26.77,27.90,31.11,5.82,32.25,1020.97,2041.05,3071.19,2995.86,3229.27,349.85,321.13,12.64,0000 0000 0000 0000 000000
2013-12-14 01:13:39,0.09,1.17,0.00,26.78,27.90,31.12,5.96,31.92,1020.91,2041.03,3071.07,2995.58,3229.13,349.48,320.77,12.64,0000 0000 0000 0000 000000
2013-12-14 01:14:39,0.11,1.17,0.00,26.81,27.90,31.13,5.92,32.63,1020.76,2041.03,3071.02,2995.25,3229.05,349.88,321.05,12.65,0000 0000 0000 0000 000000
2013-12-14 01:15:39,0.09,1.17,0.00,26.76,27.90,31.16,5.87,32.13,1020.86,2041.02,3071.00,2995.09,3229.01,349.83,321.08,12.65,0000 0000 0000 0000 000000
2013-12-14 01:16:40,0.02,1.17,0.00,26.72,27.90,31.11,6.12,32.92,1020.68,2041.01,3070.97,2995.04,3229.00,350.48,321.67,12.66,0000 0000 0000 0000 000000
2013-12-14 01:17:40,0.00,1.17,0.00,26.72,27.90,31.06,5.88,32.54,1020.59,2041.02,3070.96,2995.01,3228.97,349.86,321.04,12.67,0000 0000 0000 0000 000000
2013-12-14 01:18:40,0.02,1.17,0.00,26.75,27.90,31.07,5.93,32.25,1020.57,2041.03,3070.95,2995.00,3228.89,350.27,321.41,12.67,0000 0000 0000 0000 000000
2013-12-14 01:19:41,0.01,1.17,0.00,26.77,27.90,31.09,5.83,32.46,1020.56,2041.03,3070.82,2995.00,3228.50,349.92,320.70,12.68,0000 0000 0000 0000 000000
2013-12-14 01:20:41,0.09,1.17,0.00,26.76,27.90,31.09,5.98,32.38,1020.53,2041.02,3070.50,2994.99,3228.22,350.89,322.12,12.68,0000 0000 0000 0000 000000
2013-12-14 01:21:41,0.07,1.17,0.00,26.75,27.90,31.09,5.72,32.33,1020.53,2041.00,3070.26,2994.99,3228.08,349.33,320.53,12.69,0000 0000 0000 0000 000000
2013-12-14 01:22:41,0.03,1.17,0.00,26.77,27.90,31.10,6.02,32.38,1020.52,2041.01,3070.13,2994.88,3228.03,349.47,320.69,12.69,0000 0000 0000 0000 000000
2013-12-14 01:23:42,0.06,1.17,0.00,26.73,27.90,31.09,5.79,32.08,1020.55,2041.01,3070.05,2994.58,3228.00,349.91,320.97,12.70,0000 0000 0000 0000 000000
2013-12-14 01:24:42,0.09,1.17,0.00,26.76,27.90,31.13,5.87,32.25,1020.53,2041.00,3070.01,2994.24,3227.90,348.55,320.42,12.71,0000 0000 0000 0000 000000
2013-12-14 01:25:42,0.09,1.17,0.00,26.76,27.90,31.12,5.78,32.42,1020.52,2041.00,3069.98,2994.08,3227.61,350.42,321.52,12.71,0000 0000 0000 0000 000000
2013-12-14 01:26:42,0.07,1.17,0.00,26.73,27.91,31.11,6.01,32.25,1020.52,2041.01,3069.82,2994.02,3227.31,350.19,321.34,12.72,0000 0000 0000 0000 000000
2013-12-14 01:27:42,0.09,1.17,0.00,26.72,27.92,31.12,5.87,31.83,1020.52,2041.02,3069.56,2993.99,3227.11,350.44,321.58,12.72,0000 0000 0000 0000 000000
2013-12-14 01:28:43,0.07,1.18,0.00,26.73,27.92,31.10,5.98,32.25,1020.52,2041.01,3069.28,2993.96,3227.04,349.92,321.09,12.73,0000 0000 0000 0000 000000
2013-12-14 01:29:43,0.06,1.18,0.00,26.74,27.92,31.10,5.98,31.75,1020.53,2041.00,3069.13,2993.91,3227.01,350.64,321.75,12.74,0000 0000 0000 0000 000000
2013-12-14 01:30:43,0.03,1.18,0.00,26.78,27.92,31.09,5.90,32.13,1020.52,2041.01,3069.05,2993.67,3226.98,350.52,321.59,12.74,0000 0000 0000 0000 000000
2013-12-14 01:31:43,0.09,1.18,0.00,26.79,27.92,31.10,5.93,32.29,1020.52,2041.00,3069.02,2993.42,3226.97,350.11,321.17,12.75,0000 0000 0000 0000 000000
2013-12-14 01:32:44,0.04,1.18,0.00,26.81,27.92,31.11,5.77,31.63,1020.52,2041.03,3069.00,2993.22,3226.88,349.69,320.33,12.75,0000 0000 0000 0000 000000
2013-12-14 01:33:44,0.08,1.18,0.00,26.83,27.92,31.10,6.03,32.42,1020.51,2041.02,3068.99,2993.11,3226.48,350.99,321.89,12.76,0000 0000 0000 0000 000000
2013-12-14 01:34:44,0.09,1.18,0.00,26.82,27.92,31.13,5.90,32.29,1020.52,2041.01,3068.90,2993.05,3226.22,349.54,320.28,12.76,0000 0000 0000 0000 000000
2013-12-14 01:35:44,0.04,1.18,0.00,26.80,27.92,31.10,5.87,32.13,1020.51,2041.00,3068.87,2993.02,3226.10,349.74,320.40,12.77,0000 0000 0000 0000 000000
2013-12-14 01:36:45,0.01,1.18,0.00,26.81,27.92,31.12,5.93,32.04,1020.52,2041.01,3068.78,2993.00,3226.04,349.74,320.74,12.78,0000 0000 0000 0000 000000
2013-12-14 01:37:45,0.05,1.18,0.00,26.79,27.92,31.12,6.02,32.21,1020.50,2041.03,3068.50,2993.00,3226.02,350.66,321.70,12.78,0000 0000 0000 0000 000000
2013-12-14 01:38:45,0.03,1.18,0.00,26.75,27.92,31.13,6.13,32.46,1020.50,2041.01,3068.26,2993.00,3226.00,350.87,321.76,12.79,0000 0000 0000 0000 000000
2013-12-14 01:39:45,0.02,1.18,0.00,26.73,27.92,31.11,5.82,32.17,1020.52,2041.00,3068.10,2992.96,3225.95,349.62,320.51,12.79,0000 0000 0000 0000 000000
2013-12-14 01:40:45,0.03,1.18,0.00,26.74,27.92,31.10,5.96,32.21,1020.52,2041.01,3068.03,2992.80,3225.83,350.08,321.93,12.80,0000 0000 0000 0000 000000
2013-12-14 01:41:45,0.09,1.18,0.00,26.77,27.92,31.14,5.83,32.04,1020.52,2041.00,3068.00,2992.40,3225.41,349.41,320.59,12.81,0000 0000 0000 0000 000000
2013-12-14 01:42:45,0.16,1.18,0.00,26.77,27.92,31.18,5.92,32.42,1020.52,2041.00,3068.00,2992.18,3225.16,350.16,321.17,12.81,0000 0000 0000 0000 000000
2013-12-14 01:43:46,0.07,1.18,0.00,26.76,27.92,31.13,5.99,32.67,1020.52,2041.00,3067.97,2992.08,3225.06,351.06,322.20,12.82,0000 0000 0000 0000 000000
2013-12-14 01:44:46,0.03,1.18,0.00,26.76,27.92,31.12,5.76,32.79,1020.53,2041.00,3067.57,2992.03,3225.01,349.28,320.48,12.82,0000 0000 0000 0000 000000
2013-12-14 01:45:46,0.09,1.18,0.00,26.74,27.92,31.15,5.82,32.63,1020.54,2041.00,3067.24,2992.01,3224.97,349.55,320.22,12.83,0000 0000 0000 0000 000000
2013-12-14 01:46:46,0.05,1.18,0.00,26.76,27.93,31.14,5.98,32.75,1020.53,2041.00,3067.11,2992.00,3224.86,349.73,321.13,12.83,0000 0000 0000 0000 000000
2013-12-14 01:47:46,0.03,1.18,0.00,26.74,27.93,31.14,5.89,32.21,1020.53,2041.00,3067.05,2991.97,3224.56,349.98,320.43,12.84,0000 0000 0000 0000 000000
2013-12-14 01:48:47,0.06,1.18,0.00,26.71,27.94,31.12,5.83,32.50,1020.53,2041.00,3067.02,2991.94,3224.34,349.01,320.28,12.85,0000 0000 0000 0000 000000
2013-12-14 01:49:47,0.04,1.18,0.00,26.70,27.94,31.13,6.07,31.96,1020.53,2041.00,3067.00,2991.90,3224.18,351.23,322.29,12.85,0000 0000 0000 0000 000000
2013-12-14 01:50:47,0.02,1.18,0.00,26.70,27.94,31.13,5.91,32.21,1020.53,2041.00,3067.00,2991.59,3224.08,349.77,321.20,12.86,0000 0000 0000 0000 000000
2013-12-14 01:51:47,0.12,1.18,0.00,26.71,27.94,31.11,6.02,32.42,1020.53,2041.00,3067.00,2991.31,3224.03,349.23,320.43,12.86,0000 0000 0000 0000 000000
2013-12-14 01:52:47,0.05,1.18,0.00,26.72,27.94,31.09,6.06,32.33,1020.54,2041.00,3066.96,2991.16,3224.01,350.70,321.78,12.87,0000 0000 0000 0000 000000
2013-12-14 01:53:47,0.04,1.18,0.00,26.71,27.95,31.11,5.85,31.71,1020.53,2041.00,3066.71,2991.09,3224.00,349.66,320.88,12.88,0000 0000 0000 0000 000000
2013-12-14 01:54:47,0.05,1.18,0.00,26.73,27.95,31.12,5.86,31.92,1020.54,2041.00,3066.40,2991.03,3223.99,350.15,321.31,12.88,0000 0000 0000 0000 000000
2013-12-14 01:55:48,0.06,1.18,0.00,26.72,27.95,31.10,5.84,32.04,1020.52,2041.00,3066.23,2991.01,3223.97,348.91,320.17,12.89,0000 0000 0000 0000 000000
2013-12-14 01:56:48,0.02,1.19,0.00,26.70,27.95,31.11,6.03,32.46,1020.53,2041.00,3066.12,2991.00,3223.85,350.61,321.61,12.89,0000 0000 0000 0000 000000
2013-12-14 01:57:48,0.04,1.19,0.00,26.70,27.95,31.09,5.92,32.21,1020.53,2041.00,3066.05,2990.99,3223.59,349.90,321.11,12.90,0000 0000 0000 0000 000000
2013-12-14 01:58:49,0.04,1.19,0.00,26.70,27.95,31.10,5.86,32.79,1020.53,2041.00,3066.02,2990.97,3223.30,348.85,319.77,12.91,0000 0000 0000 0000 000000
2013-12-14 01:59:49,0.05,1.19,0.00,26.68,27.95,31.08,5.82,32.54,1020.52,2041.00,3066.00,2990.98,3223.14,349.58,320.36,12.91,0000 0000 0000 0000 000000
2013-12-14 02:00:49,0.01,1.19,0.00,26.64,27.95,31.13,5.82,32.33,1020.55,2041.00,3066.00,2990.93,3223.05,349.13,320.60,12.92,0000 0000 0000 0000 000000
2013-12-14 02:01:49,0.01,1.19,0.00,26.64,27.95,31.13,6.00,32.08,1020.55,2041.00,3065.94,2990.74,3223.02,350.52,321.77,12.92,0000 0000 0000 0000 000000
2013-12-14 02:02:50,0.07,1.19,0.00,26.66,27.95,31.15,5.96,32.29,1020.56,2041.00,3065.71,2990.35,3223.00,349.56,320.85,12.93,0000 0000 0000 0000 000000
2013-12-14 02:03:50,0.14,1.19,0.00,26.66,27.95,31.13,5.87,31.88,1020.55,2041.00,3065.67,2990.18,3223.00,350.59,321.79,12.93,0000 0000 0000 0000 000000
2013-12-14 02:04:50,0.02,1.19,0.00,26.61,27.95,31.17,6.05,31.88,1020.64,2041.00,3065.37,2990.10,3223.00,350.59,321.87,12.94,0000 0000 0000 0000 000000
2013-12-14 02:05:50,0.08,1.19,0.00,26.59,27.95,31.18,6.02,31.75,1020.66,2041.00,3065.19,2990.05,3222.97,351.00,322.22,12.95,0000 0000 0000 0000 000000
2013-12-14 02:06:50,0.03,1.19,0.00,26.57,27.95,31.13,5.97,32.25,1020.72,2041.00,3065.10,2990.02,3222.91,350.55,321.91,12.95,0000 0000 0000 0000 000000
2013-12-14 02:07:51,0.03,1.19,0.00,26.60,27.95,31.13,5.83,32.54,1020.64,2041.00,3065.04,2990.00,3222.63,349.72,321.09,12.96,0000 0000 0000 0000 000000
2013-12-14 02:08:51,0.05,1.19,0.00,26.62,27.95,31.05,5.88,32.58,1020.56,2041.00,3065.02,2990.00,3222.39,350.32,321.60,12.96,0000 0000 0000 0000 000000
2013-12-14 02:09:51,0.04,1.19,0.00,26.61,27.95,31.09,5.97,32.29,1020.59,2041.00,3065.00,2989.99,3222.14,349.43,320.80,12.97,0000 0000 0000 0000 000000
2013-12-14 02:10:51,0.03,1.19,0.00,26.64,27.95,31.13,5.72,32.17,1020.58,2041.00,3064.98,2989.98,3222.05,349.53,321.08,12.98,0000 0000 0000 0000 000000
2013-12-14 02:11:51,0.02,1.19,0.00,26.63,27.95,31.05,5.95,32.08,1020.59,2041.00,3064.83,2989.95,3222.01,350.89,322.11,12.98,0000 0000 0000 0000 000000
2013-12-14 02:12:52,0.02,1.19,0.00,26.61,27.95,31.02,5.78,32.33,1020.55,2041.00,3064.68,2989.89,3222.00,349.94,320.98,12.99,0000 0000 0000 0000 000000
2013-12-14 02:13:52,0.05,1.19,0.00,26.58,27.95,31.04,5.83,32.13,1020.53,2041.00,3064.49,2989.72,3221.96,349.84,321.19,12.99,0000 0000 0000 0000 000000
2013-12-14 02:14:52,0.06,1.19,0.00,26.62,27.95,31.05,6.01,32.21,1020.52,2041.00,3064.23,2989.38,3221.73,350.06,321.34,13.00,0000 0000 0000 0000 000000
2013-12-14 02:15:53,0.17,1.19,0.00,26.58,27.95,31.05,5.89,32.25,1020.52,2041.00,3064.08,2989.14,3221.30,349.54,320.90,13.00,0000 0000 0000 0000 000000
2013-12-14 02:16:53,0.12,1.19,0.00,26.58,27.95,31.01,5.90,32.42,1020.52,2041.00,3064.03,2989.05,3221.11,350.33,321.63,13.01,0000 0000 0000 0000 000000
2013-12-14 02:17:53,0.04,1.19,0.00,26.55,27.94,31.05,5.72,31.96,1020.52,2041.00,3063.98,2989.02,3221.04,349.29,320.70,13.02,0000 0000 0000 0000 000000
2013-12-14 02:18:53,0.02,1.19,0.00,26.57,27.94,31.13,5.90,32.50,1020.51,2041.00,3063.71,2989.00,3221.01,349.56,320.93,13.02,0000 0000 0000 0000 000000
2013-12-14 02:19:53,0.04,1.19,0.00,26.61,27.94,31.06,5.79,31.83,1020.51,2041.00,3063.50,2989.00,3220.97,349.45,320.79,13.03,0000 0000 0000 0000 000000
2013-12-14 02:20:54,0.04,1.19,0.00,26.56,27.94,31.02,5.96,32.25,1020.50,2041.00,3063.33,2988.81,3220.75,350.06,321.31,13.03,0000 0000 0000 0000 000000
2013-12-14 02:21:54,0.13,1.19,0.00,26.52,27.94,31.05,5.92,32.75,1020.48,2041.00,3063.15,2988.50,3220.33,349.85,321.42,13.04,0000 0000 0000 0000 000000
2013-12-14 02:22:54,0.14,1.19,0.00,26.52,27.93,31.05,6.02,32.83,1020.50,2041.00,3063.05,2988.25,3220.13,349.86,321.25,13.05,0000 0000 0000 0000 000000
2013-12-14 02:23:54,0.09,1.20,0.00,26.52,27.93,31.10,5.87,32.42,1020.52,2041.00,3063.02,2988.13,3220.05,350.09,321.48,13.05,0000 0000 0000 0000 000000
2013-12-14 02:24:55,0.04,1.20,0.00,26.53,27.93,31.12,5.92,31.75,1020.51,2041.00,3062.99,2988.05,3220.01,350.19,321.24,13.06,0000 0000 0000 0000 000000
2013-12-14 02:25:55,0.02,1.20,0.00,26.54,27.92,31.07,5.90,32.08,1020.51,2041.00,3062.90,2988.02,3219.99,350.82,322.12,13.06,0000 0000 0000 0000 000000
2013-12-14 02:26:55,0.02,1.20,0.00,26.49,27.92,31.08,5.79,32.04,1020.50,2041.00,3062.75,2988.00,3219.96,349.67,321.08,13.07,0000 0000 0000 0000 000000
2013-12-14 02:27:55,0.04,1.20,0.00,26.52,27.92,30.98,5.76,31.88,1020.52,2041.00,3062.34,2987.98,3219.63,349.53,320.96,13.07,0000 0000 0000 0000 000000
2013-12-14 02:28:55,0.11,1.20,0.00,26.53,27.92,30.96,6.02,32.50,1020.52,2041.00,3062.13,2987.95,3219.25,350.41,322.15,13.08,0000 0000 0000 0000 000000
2013-12-14 02:29:56,0.08,1.20,0.00,26.52,27.92,31.00,6.02,32.58,1020.54,2041.00,3062.05,2987.76,3219.09,349.71,320.40,13.09,0000 0000 0000 0000 000000
2013-12-14 02:30:56,0.08,1.20,0.00,26.47,27.92,30.98,5.87,32.00,1020.58,2041.00,3062.01,2987.63,3219.03,349.74,320.71,13.09,0000 0000 0000 0000 000000
2013-12-14 02:31:56,0.04,1.20,0.00,26.51,27.92,30.98,5.90,32.67,1020.56,2041.00,3062.00,2987.47,3219.01,350.03,321.41,13.10,0000 0000 0000 0000 000000
2013-12-14 02:32:56,0.03,1.20,0.00,26.55,27.92,31.00,5.71,31.83,1020.57,2041.00,3061.99,2987.22,3218.99,349.45,321.05,13.10,0000 0000 0000 0000 000000
2013-12-14 02:33:57,0.05,1.20,0.00,26.52,27.92,31.03,6.12,32.13,1020.62,2041.00,3061.94,2987.12,3218.95,349.93,321.36,13.11,0000 0000 0000 0000 000000
2013-12-14 02:34:57,0.03,1.20,0.00,26.50,27.92,30.97,5.94,32.04,1020.56,2041.00,3061.91,2987.06,3218.78,349.60,321.04,13.12,0000 0000 0000 0000 000000
2013-12-14 02:35:57,0.04,1.20,0.00,26.50,27.92,30.99,5.87,32.50,1020.55,2041.00,3061.78,2987.02,3218.53,348.68,320.20,13.12,0000 0000 0000 0000 000000